Location: Aix-en-Ergny
(50.5839°N, 1.9996°E)
Time: 04:27:35
(UTC+00:00)

Cosmos 2341 Rocket - Pass Details

Date: 23 October 2019
Orbit: 968 x 1004 km, 82.9° (Epoch: 14 November)

Event Time Altitude Azimuth Distance (km) Brightness Sun altitude
Rises 04:51:27 0° 191° (S) 3,664 6.9 -15.8°
Reaches altitude 10° 04:53:58 10° 192° (SSW) 2,716 6.2 -15.4°
Maximum altitude 05:00:11 80° 279° (W) 991 3.9 -14.4°
Drops below altitude 10° 05:06:27 10° 8° (N) 2,723 6.4 -13.4°
Sets 05:08:58 0° 10° (N) 3,674 7.1 -13.1°
